Regional Weather Roundup
Issued by NWS

Home | Current Version | Previous Version | Graphics & Text | Print | Product List | Glossary On
Versions: 1 2 3 4 5 6 7 8 9 10 11 12 13 14 15 16 17 18 19 20 21 22 23 24 25 26 27 28 29 30 31 32 33 34 35 36 37 38 39 40 41 42 43 44 45 46 47 48 49 50
000
ASUS43 KMKX 260300
RWRWI

WISCONSIN REGIONAL WEATHER ROUNDUP
NATIONAL WEATHER SERVICE MILWAUKEE/SULLIVAN WI
900 PM CST TUE NOV 25 2014

NOTE: "FAIR" INDICATES FEW OR NO CLOUDS BELOW 12,000 FEET WITH NO
SIGNIFICANT WEATHER AND/OR OBSTRUCTIONS TO VISIBILITY.

WIZ001-002-006>008-014>016-023>028-260400-
NORTHWEST WISCONSIN

CITY           SKY/WX    TMP DP  RH WIND       PRES   REMARKS
SUPERIOR ARPT  CLOUDY    18  12  77 CALM      30.07R
ASHLAND        MOCLDY    10   7  87 S3        30.08S
HAYWARD        CLOUDY    16  12  84 CALM      30.04R
SIREN          CLOUDY    20  15  79 CALM      30.05R
CUMBERLAND     CLOUDY    21  16  79 S6        30.03R WCI  14
RICE LAKE      CLOUDY    21  16  79 SE5       30.06R WCI  15
CHETEK         CLOUDY    21  15  78 CALM      30.05R
LADYSMITH      CLOUDY    20  15  81 S3        30.06R
EAU CLAIRE     NOT AVBL
MENOMONIE      CLOUDY    24  16  73 SE3       30.06R
NEW RICHMOND   CLOUDY    23  17  77 S6        30.04R WCI  16
OSCEOLA        CLOUDY    24  18  78 SE5       30.06S WCI  18
$$

WIZ003>005-009-010-017-018-260400-
NORTH CENTRAL WISCONSIN

CITY           SKY/WX    TMP DP  RH WIND       PRES   REMARKS
MANITOWISH WTR PTCLDY     3   1  89 CALM      30.02R
ARBOR VITAE    CLEAR      9   6  87 CALM      30.02R
WOODRUFF       CLEAR      9   6  87 CALM      30.02R
RHINELANDER    CLEAR      3   0  87 CALM      30.03R FOG
EAGLE RIVER    CLEAR      3  -1  81 CALM      30.02R
LAND O LAKES   CLEAR     -2  -6  84 CALM      30.02S
PHILLIPS       CLOUDY    10   7  91 CALM      30.02S
TOMAHAWK       PTCLDY     3   0  88 CALM      30.04S
MEDFORD        CLOUDY    18  13  83 CALM      30.03S
MERRILL        PTCLDY     6   3  89 CALM      30.05R
$$

WIZ029-030-035-036-043>047-260400-
CENTRAL WISCONSIN

CITY           SKY/WX    TMP DP  RH WIND       PRES   REMARKS
WAUSAU         CLEAR     11   9  92 E5        30.05R WCI   3
MOSINEE        CLEAR     10   9  92 CALM      30.07R
MARSHFIELD     CLOUDY    21  15  78 SW7       30.06R WCI  12
STEVENS POINT  PTCLDY     6   3  89 CALM      30.08S
WAUPACA        CLEAR     13   9  86 CALM      30.11S FOG
WAUTOMA        NOT AVBL
WISC RAPIDS    CLOUDY    18  13  80 S6        30.09S WCI  10
CAMP DOUGLAS   NOT AVBL
$$

WIZ011>013-019>022-031-037>040-048>050-260400-
NORTHEAST WISCONSIN

CITY           SKY/WX    TMP DP  RH WIND       PRES   REMARKS
ANTIGO         FOG       -4  -8  86 CALM      30.04S VSB 1/4
SHAWANO        CLEAR     17  14  89 CALM      30.11R
OCONTO         CLOUDY    19  17  90 CALM      30.12R
STURGEON BAY   CLOUDY    21  16  79 S6        30.12R WCI  14
GREEN BAY      MOCLDY    19  15  84 S3        30.13R
MANITOWOC      NOT AVBL
APPLETON       CLEAR     14  12  92 VRB3      30.11S
CLINTONVILLE   CLEAR      9   7  92 CALM      30.10S FOG
OSHKOSH        MOCLDY    17  13  84 S5        30.13R WCI  10
$$

WIZ032>034-041-042-053>061-260400-
SOUTHWEST WISCONSIN

CITY           SKY/WX    TMP DP  RH WIND       PRES   REMARKS
LA CROSSE      PTCLDY    20  13  74 SW5       30.11R WCI  13
SPARTA         CLOUDY    19  15  82 CALM      30.10F
VIROQUA        PTCLDY    12  11  94 CALM      30.07S
BOSCOBEL       CLEAR     11   7  84 CALM      30.12S
PRAIRIE DU CHI CLEAR     15  12  87 CALM      30.11F
PLATTEVILLE    CLEAR     16  14  90 S5        30.11S WCI   9
$$

WIZ056-057-062-063-064-067-068-260400-
SOUTH CENTRAL WISCONSIN

CITY           SKY/WX    TMP DP  RH WIND       PRES   REMARKS
REEDSBURG      CLEAR     11   9  92 CALM      30.09F
BARABOO/DELLS  CLEAR     13  12  92 S5        30.09S FOG     WCI   6
LONE ROCK      NOT AVBL
MINERAL POINT  CLEAR     19  14  79 S6        30.09S WCI  11
MADISON        CLEAR     18  14  84 S6        30.12S WCI  10
MIDDLETON      CLEAR      8   4  83 CALM      30.12S
WATERTOWN      CLOUDY    18  16  91 S3        30.13S
MONROE         CLEAR     14  14 100 S6        30.11S WCI   5
JANESVILLE     CLEAR     12   9  85 CALM      30.15S
$$

WIZ051-052-058>065-066-070>072-260400-
SOUTHEAST WISCONSIN

CITY           SKY/WX    TMP DP  RH WIND       PRES   REMARKS
MILWAUKEE      PTCLDY    19  14  81 SW6       30.17R WCI  11
WAUKESHA       CLOUDY    18  16  93 SW5       30.16R WCI  11
MILWAUKEE/TIMM CLOUDY    21  16  79 SW5       30.17R WCI  15
RACINE         CLOUDY    21  15  78 W5        30.18S WCI  15
BURLINGTON     CLOUDY    17  14  90 SW5       30.16R WCI   9
KENOSHA        CLOUDY    20  16  84 SW6       30.17R WCI  12
FOND DU LAC    CLOUDY    20  14  77 SW5       30.13R WCI  13
SHEBOYGAN      CLOUDY    20  15  81 W5        30.15R WCI  13
WEST BEND      CLOUDY    21  16  79 CALM      30.14R
JUNEAU         PTCLDY    17  14  91 SE5       30.13S WCI   9
$$

LSZ147-162-260400-
LAKE SUPERIOR

STATION/POSITION TIME  TEMP    WIND        PRES    WAVE
                       AIR SEA DIR/SP/G            HT/PER
                 (UTC) (F)     (DEG/KT/KT) (MB)    (FT/S)
DEVILS ISLAND    0200   23     220/ 15/ 19 1018.5R
PORT WING        0200   17     140/  2/  4 1018.3
SAXON HARBOR     0240   13        CALM     1018.6R
$$

LMZ867-665-643>646-260400-
LAKE MICHIGAN

STATION/POSITION TIME  TEMP    WIND        PRES    WAVE
                       AIR SEA DIR/SP/G            HT/PER
                 (UTC) (F)     (DEG/KT/KT) (MB)    (FT/S)
CHAMBERS ISLAND  0200   24     230/  8/ 12 1019.6R
N MID LAKE BUOY  0150   28 42  270/  8/ 12 1020.0R   1/ 3
NORTHPORT PIER   0202   26     220/  2/  4 1019.3S
SISTER BAY       0113             CALM       N/A
ALGOMA LAKESHORE 0213          270/  8/ 10   N/A
KEWAUNEE LAKESHO 0200   21     250/  8/ 11 1019.4R
SHEBOYGAN LAKESH 0200   21 36  240/  6/  7 1022.1R
PORT WASHINGTON  0200   22     300/  4/  7 1022.0
MILWAUKEE LAKESH 0200   22     230/  6/  8   N/A
S MID LAKE BUOY  0150   28 42  240/  8/ 14 1022.1R   3/ 6
KENOSHA   LAKESH 0200   22     210/  5/  6 1021.7R
$$

TC  - TEMPERATURE IN CELSIUS
VSB - VISIBILITY IN STATUTE MILES
WCI - WIND CHILL INDEX
HX  - HEAT INDEX




USA.gov is the U.S. government's official web portal to all federal, state and local government web resources and services.